Find Starlink 37259

NORAD ID: 68972 Int'l Des: 2026-099 Owner: SPXS Country: US Constellation: starlink operational
LEOCIRCULAR

当前视图

正在加载3D地球...

About Starlink 37259

Starlink 37259 (NORAD 68972) is a starlink constellation satellite (v2 mini) launched May 1, 2026 by SPXS of US. It operates in LEO, CIRCULAR orbit with a mass of 575.00 kg.

关于 Starlink 37259

正在加载描述...

即将过境

Passes for default location (London). Set your location on the main map for personalized predictions.

高度历史

Loading altitude history...

两行轨道根数

1 68972U 26099X 26170.91668981 .00039509 00000-0 11752-2 0 9996
2 68972 53.1594 148.3830 0000801 127.3481 231.5722 15.34376154 5997
Epoch: Jun 19, 2026 • Age: 13 hours

当前状态

高度 474.1 km
速度 7.63 km/s
星下点 -35.56°S, 83.16°W
发射日期 May 1, 2026
运行时间 0.1 years
类型 internet

技术详情

分类 Payload
质量 575.00 kg
干质量 530.00 kg
总质量 575.00 kg
长度 0.30 m
直径 4.10 m
跨度 29.00 m
形状 Box + pan
制造商 SPXS
平台类型 Starlink V2MO
阶段状态 In Orbit
所有者/国家 SPXS/US

Most Searched